LANDSAT 4 1 13367U 82072A 09184.69154597 .00000103 00000-0 13011-4 0 1634 2 13367 98.1862 100.5650 0016110 280.6738 79.2671 15.02225208446997 TDRS 1 1 13969U 83026B 09183.91224734 -.00000307 00000-0 10000-3 0 8859 2 13969 13.3517 9.1541 0023294 231.2103 320.1782 1.00266867 69152 LANDSAT 5 1 14780U 84021A 09184.60540380 -.00000005 00000-0 90780-5 0 8289 2 14780 98.2434 251.9839 0003665 71.0457 289.1145 14.57093550347770 ERBS 1 15354U 84108B 09184.84623681 -.00000284 00000-0 83671-6 0 1425 2 15354 56.9870 86.5254 0023603 98.1025 262.2680 15.15790711354582 TDRS 3 1 19548U 88091B 09183.93389824 -.00000200 00000-0 10000-3 0 2899 2 19548 11.8706 39.7596 0022471 323.5968 338.7469 1.00269152 63299 TDRS 4 1 19883U 89021B 09183.90889440 -.00000288 00000-0 10000-3 0 6116 2 19883 10.5405 51.6413 0001647 352.3450 158.4857 1.00273082246874 HST 1 20580U 90037B 09182.21105557 .00001468 00000-0 10000-3 0 4145 2 20580 28.4715 10.7573 0003745 65.8123 294.2958 15.00816593851967 TDRS 5 1 21639U 91054B 09184.33875291 .00000098 00000-0 10000-3 0 4716 2 21639 9.8942 55.4225 0010373 338.1279 202.2011 1.00268539 65626 UARS 1 21701U 91063B 09184.57833661 .00004011 00000-0 58140-4 0 7054 2 21701 56.9721 292.5980 0074006 200.2208 159.5916 15.55455433981777 TOPEX/POSEIDON 1 22076U 92052A 09184.87669936 -.00000038 00000-0 10000-3 0 3766 2 22076 66.0382 36.0500 0007668 264.1389 95.8753 12.80947973790382 TDRS 6 1 22314U 93003B 09183.62895281 .00000086 00000-0 10000-3 0 4970 2 22314 9.2438 58.4971 0007064 0.1132 277.2858 1.00276727 60331 TDRS 7 1 23613U 95035B 09183.84592301 -.00000319 00000-0 10000-3 0 5499 2 23613 11.0680 48.0343 0005835 230.2992 74.1809 0.99440115 51146 RXTE (XTE) 1 23757U 95074A 09183.54987425 .00000940 00000-0 17367-4 0 9018 2 23757 22.9850 285.8556 0008290 179.1557 180.8971 15.27275412748127 TRMM 1 25063U 97074A 09184.47394313 .00002227 00000-0 31995-4 0 1030 2 25063 34.9653 230.7620 0001036 286.9466 73.1104 15.55744717662634 KIKU-7 (ETS-VII) 1 25064U 97074B 09184.56954609 .00000163 00000-0 77751-5 0 8407 2 25064 34.9603 288.5484 0000697 41.4202 318.6565 15.25186680643513 ISS (ZARYA) 1 25544U 98067A 09184.63861228 .00012881 00000-0 91947-4 0 1512 2 25544 51.6381 222.4298 0007559 181.2943 319.7228 15.74172783608549 LANDSAT 7 1 25682U 99020A 09184.64092547 -.00000045 00000-0 97581-7 0 9203 2 25682 98.2069 252.4244 0001213 119.3911 240.7414 14.57115405543472 FUSE 1 1 25791U 99035A 09183.52785433 .00000139 00000-0 -12280-4 0 4703 2 25791 24.9851 233.8760 0010300 77.9864 282.1801 14.41795760528617 TERRA 1 25994U 99068A 09184.45394624 .00000081 00000-0 28048-4 0 8321 2 25994 98.2005 259.2030 0001175 71.4911 288.6416 14.57128228507527 TDRS 8 1 26388U 00034A 09183.98986123 -.00000220 00000-0 10000-3 0 9866 2 26388 1.4354 107.9170 0004446 1.5916 257.0922 1.00275910 33087 EO-1 1 26619U 00075A 09184.38599102 -.00000175 00000-0 -25570-4 0 2020 2 26619 98.1438 251.5396 0008857 253.9311 106.0914 14.62025539458636 TIMED 1 26998U 01055B 09184.31688552 .00000090 00000-0 15064-4 0 3325 2 26998 74.0745 318.1168 0001010 31.9918 328.1326 14.84080750409919 TDRS 9 1 27389U 02011A 09183.38781939 -.00000274 00000-0 10000-3 0 4041 2 27389 2.3162 231.8291 0008446 174.4314 311.8683 1.00271812 28335 AQUA 1 27424U 02022A 09184.33865747 .00000090 00000-0 29965-4 0 3572 2 27424 98.1782 126.3599 0002012 84.5309 275.6119 14.57130103381115 TDRS 10 1 27566U 02055A 09182.11826789 -.00000263 00000-0 00000-0 0 1231 2 27566 1.0637 281.8516 0003592 185.4147 173.5950 1.00264667 24148 SORCE 1 27651U 03004A 09184.57723736 -.00000015 00000-0 13991-4 0 9422 2 27651 39.9958 223.1833 0025608 98.8239 261.5452 14.82188450348728 GALEX 1 27783U 03017A 09184.00643806 .00000141 00000-0 72998-5 0 7036 2 27783 28.9978 162.7878 0004207 247.9211 112.0919 14.59752641330092 GP-B 1 28230U 04014A 09184.37385543 .00000119 00000-0 15023-4 0 5435 2 28230 89.9416 157.8486 0003699 81.6560 278.5088 14.75978161280160 AURA 1 28376U 04026A 09183.65751233 .00000007 00000-0 11499-4 0 5385 2 28376 98.1751 127.8273 0001827 87.1135 273.0238 14.57126150264067 SWIFT 1 28485U 04047A 09183.92357404 .00000547 00000-0 13460-4 0 3366 2 28485 20.5579 92.5729 0014126 248.9544 110.9364 14.92551389252023 THEMIS A 1 30580U 07004A 09183.62500000 -.00000087 00000-0 10000-3 0 4547 2 30580 9.2452 246.5824 7883721 115.6057 352.6729 0.87648670 8336 THEMIS B 1 30581U 07004B 09182.29166667 -.00001538 00000-0 00000-0 0 2622 2 30581 10.7245 7.4354 9150916 320.3132 356.5941 0.25361701 6099 THEMIS C 1 30582U 07004C 09184.41666667 -.00000463 00000-0 00000-0 0 4240 2 30582 8.7501 343.5940 8567712 354.5453 356.2941 0.50404110 5037 THEMIS D 1 30797U 07004D 09183.50000000 -.00000070 00000-0 00000+0 0 5952 2 30797 4.0848 245.6292 7493319 116.6340 351.3217 1.00267211 7907 THEMIS E 1 30798U 07004E 09183.54166667 -.00000084 00000-0 00000+0 0 6157 2 30798 4.6212 245.0390 7490775 117.2110 352.0175 1.00269413 8040 C/NOFS 1 32765U 08017A 09183.53228662 .00001885 00000-0 48603-4 0 3276 2 32765 13.0060 347.2444 0314291 288.8261 67.8245 14.81417775 65590 AIM 1 31304U 07015A 09184.25488627 .00000460 00000-0 50774-4 0 7454 2 31304 97.8004 284.7510 0011864 161.7301 198.4344 14.92147918119197 FGRST (GLAST) 1 33053U 08029A 09183.57525949 .00000278 00000-0 00000+0 0 2786 2 33053 25.5849 243.0221 0013994 314.6426 45.2962 15.04939436 58202